Time,TemperatureF,DewpointF,PressureIn,WindDirection,WindDirectionDegrees,WindSpeedMPH,WindSpeedGustMPH,Humidity,HourlyPrecipIn,Conditions,Clouds,dailyrainin,SoftwareType,DateUTC
2013-01-15 00:02:00,8.0,-13.0,30.08,NE,45,8.0,14.0,36,0.00,,,-99.99,,2013-01-15 07:02:00,
2013-01-15 00:22:00,8.0,-13.0,30.09,North,360,8.0,16.0,37,0.00,,,-99.99,,2013-01-15 07:22:00,
2013-01-15 00:32:00,8.0,-13.0,30.09,NW,315,7.0,12.0,37,0.00,,,-99.99,,2013-01-15 07:32:00,
2013-01-15 00:52:00,8.0,-13.0,30.09,NE,45,7.0,12.0,37,0.00,,,-99.99,,2013-01-15 07:52:00,
2013-01-15 01:01:00,5.0,-14.0,30.09,North,360,1.0,4.0,40,0.00,,,-99.99,,2013-01-15 08:01:00,
2013-01-15 01:32:00,5.0,-13.0,30.10,NW,315,3.0,6.0,41,0.00,,,-99.99,,2013-01-15 08:32:00,
2013-01-15 01:42:00,5.0,-13.0,30.10,NW,315,3.0,6.0,41,0.00,,,-99.99,,2013-01-15 08:42:00,
2013-01-15 01:53:00,0.0,-16.0,30.11,North,360,1.0,4.0,45,0.00,,,-99.99,,2013-01-15 08:53:00,
2013-01-15 02:02:00,2.0,-14.0,30.11,East,90,1.0,4.0,46,0.00,,,-99.99,,2013-01-15 09:02:00,
2013-01-15 02:11:00,2.0,-14.0,30.11,East,90,1.0,4.0,46,0.00,,,-99.99,,2013-01-15 09:11:00,
2013-01-15 02:22:00,3.0,-15.0,30.11,East,90,1.0,4.0,41,0.00,,,-99.99,,2013-01-15 09:22:00,
2013-01-15 02:33:00,1.0,-15.0,30.11,SE,135,2.0,3.0,46,0.00,,,-99.99,,2013-01-15 09:33:00,
2013-01-15 02:42:00,1.0,-15.0,30.11,SE,135,2.0,3.0,46,0.00,,,-99.99,,2013-01-15 09:42:00,
2013-01-15 02:52:00,2.0,-14.0,30.12,West,270,1.0,4.0,46,0.00,,,-99.99,,2013-01-15 09:52:00,
2013-01-15 03:01:00,3.0,-13.0,30.11,NE,45,0.0,4.0,45,0.00,,,-99.99,,2013-01-15 10:01:00,
2013-01-15 03:11:00,3.0,-13.0,30.11,NE,45,0.0,4.0,45,0.00,,,-99.99,,2013-01-15 10:11:00,
2013-01-15 03:22:00,3.0,-13.0,30.11,NE,45,0.0,2.0,45,0.00,,,-99.99,,2013-01-15 10:22:00,
2013-01-15 03:32:00,0.0,-16.0,30.12,NW,315,0.0,3.0,46,0.00,,,-99.99,,2013-01-15 10:32:00,
2013-01-15 03:42:00,0.0,-16.0,30.12,NW,315,0.0,3.0,46,0.00,,,-99.99,,2013-01-15 10:42:00,
2013-01-15 03:52:00,0.0,-15.0,30.11,North,360,0.0,4.0,49,0.00,,,-99.99,,2013-01-15 10:52:00,
2013-01-15 04:02:00,0.0,-15.0,30.11,NE,45,0.0,2.0,48,0.00,,,-99.99,,2013-01-15 11:02:00,
2013-01-15 04:11:00,0.0,-15.0,30.11,NE,45,0.0,2.0,48,0.00,,,-99.99,,2013-01-15 11:11:00,
2013-01-15 04:22:00,0.0,-15.0,30.11,NE,45,0.0,2.0,48,0.00,,,-99.99,,2013-01-15 11:22:00,
2013-01-15 04:32:00,0.0,-15.0,30.11,NE,45,0.0,2.0,48,0.00,,,-99.99,,2013-01-15 11:32:00,
2013-01-15 04:53:00,0.0,-14.0,30.11,NW,315,0.0,4.0,51,0.00,,,-99.99,,2013-01-15 11:53:00,
2013-01-15 05:02:00,-1.0,-16.0,30.12,WNW,292,0.0,3.0,48,0.00,,,-99.99,,2013-01-15 12:02:00,
2013-01-15 05:12:00,-1.0,-16.0,30.12,WNW,292,0.0,3.0,48,0.00,,,-99.99,,2013-01-15 12:12:00,
2013-01-15 05:22:00,-1.0,-16.0,30.12,South,180,0.0,2.0,49,0.00,,,-99.99,,2013-01-15 12:22:00,
2013-01-15 05:32:00,-2.0,-15.0,30.12,West,270,0.0,2.0,53,0.00,,,-99.99,,2013-01-15 12:32:00,
2013-01-15 05:42:00,-2.0,-15.0,30.12,West,270,0.0,2.0,53,0.00,,,-99.99,,2013-01-15 12:42:00,
2013-01-15 05:52:00,-3.0,-16.0,30.12,SSW,202,2.0,5.0,52,0.00,,,-99.99,,2013-01-15 12:52:00,
2013-01-15 06:02:00,-1.0,-15.0,30.12,East,90,1.0,4.0,50,0.00,,,-99.99,,2013-01-15 13:02:00,
2013-01-15 06:12:00,-1.0,-15.0,30.12,East,90,1.0,4.0,50,0.00,,,-99.99,,2013-01-15 13:12:00,
2013-01-15 06:22:00,-1.0,-15.0,30.12,East,90,1.0,4.0,50,0.00,,,-99.99,,2013-01-15 13:22:00,
2013-01-15 06:33:00,-1.0,-15.0,30.13,East,90,1.0,6.0,51,0.00,,,-99.99,,2013-01-15 13:33:00,
2013-01-15 06:42:00,-1.0,-15.0,30.13,East,90,1.0,6.0,51,0.00,,,-99.99,,2013-01-15 13:42:00,
2013-01-15 06:53:00,-5.0,-14.0,30.12,South,180,4.0,8.0,63,0.00,,,-99.99,,2013-01-15 13:53:00,
2013-01-15 07:02:00,-6.0,-17.0,30.13,South,180,2.0,6.0,59,0.00,,,-99.99,,2013-01-15 14:02:00,
2013-01-15 07:11:00,-6.0,-17.0,30.13,South,180,2.0,6.0,59,0.00,,,-99.99,,2013-01-15 14:11:00,
2013-01-15 07:20:00,-3.0,-14.0,30.15,SSW,202,3.0,5.0,57,0.00,,,-99.99,,2013-01-15 14:20:00,
2013-01-15 07:22:00,-7.0,-16.0,30.13,South,180,4.0,8.0,64,0.00,,,-99.99,,2013-01-15 14:22:00,
2013-01-15 07:32:00,-4.0,-12.0,30.14,SSW,202,2.0,5.0,66,0.00,,,-99.99,,2013-01-15 14:32:00,
2013-01-15 07:42:00,-4.0,-12.0,30.14,SSW,202,2.0,5.0,66,0.00,,,-99.99,,2013-01-15 14:42:00,
2013-01-15 07:53:00,-3.0,-14.0,30.15,SSW,202,3.0,5.0,57,0.00,,,-99.99,,2013-01-15 14:53:00,
2013-01-15 08:02:00,-3.0,-14.0,30.15,SSW,202,3.0,5.0,57,0.00,,,-99.99,,2013-01-15 15:02:00,
2013-01-15 08:12:00,-3.0,-14.0,30.15,SSW,202,3.0,5.0,57,0.00,,,-99.99,,2013-01-15 15:12:00,
2013-01-15 08:33:00,11.0,-9.0,30.16,North,360,6.0,17.0,39,0.00,,,-99.99,,2013-01-15 15:33:00,
2013-01-15 09:11:00,11.0,-9.0,30.16,North,360,6.0,17.0,39,0.00,,,-99.99,,2013-01-15 16:11:00,
2013-01-15 09:23:00,18.0,-6.0,30.18,NE,45,11.0,23.0,33,0.00,,,-99.99,,2013-01-15 16:23:00,
2013-01-15 09:33:00,19.0,-5.0,30.18,WNW,292,6.0,11.0,33,0.00,,,-99.99,,2013-01-15 16:33:00,
2013-01-15 10:02:00,23.0,-1.0,30.19,North,360,6.0,14.0,35,0.00,,,-99.99,,2013-01-15 17:02:00,
2013-01-15 10:22:00,24.0,-2.0,30.19,NW,315,7.0,14.0,32,0.00,,,-99.99,,2013-01-15 17:22:00,
2013-01-15 10:53:00,25.0,-1.0,30.19,East,90,10.0,18.0,32,0.00,,,-99.99,,2013-01-15 17:53:00,
2013-01-15 11:02:00,27.0,0.0,30.20,East,90,8.0,15.0,31,0.00,,,-99.99,,2013-01-15 18:02:00,
2013-01-15 11:33:00,28.0,1.0,30.21,North,360,8.0,17.0,31,0.00,,,-99.99,,2013-01-15 18:33:00,
2013-01-15 11:42:00,28.0,1.0,30.21,North,360,8.0,17.0,31,0.00,,,-99.99,,2013-01-15 18:42:00,
2013-01-15 11:52:00,29.0,3.0,30.21,NE,45,8.0,17.0,32,0.00,,,-99.99,,2013-01-15 18:52:00,
2013-01-15 12:12:00,29.0,3.0,30.21,NE,45,8.0,17.0,32,0.00,,,-99.99,,2013-01-15 19:12:00,
2013-01-15 12:22:00,30.0,3.0,30.20,WNW,292,9.0,21.0,31,0.00,,,-99.99,,2013-01-15 19:22:00,
2013-01-15 12:33:00,30.0,3.0,30.20,WNW,292,9.0,21.0,31,0.00,,,-99.99,,2013-01-15 19:33:00,
2013-01-15 12:43:00,30.0,3.0,30.20,WNW,292,9.0,21.0,31,0.00,,,-99.99,,2013-01-15 19:43:00,
2013-01-15 12:53:00,30.0,4.0,30.19,NW,315,7.0,15.0,33,0.00,,,-99.99,,2013-01-15 19:53:00,
2013-01-15 13:02:00,32.0,6.0,30.19,NW,315,6.0,14.0,32,0.00,,,-99.99,,2013-01-15 20:02:00,
2013-01-15 13:12:00,32.0,6.0,30.19,NW,315,6.0,14.0,32,0.00,,,-99.99,,2013-01-15 20:12:00,
2013-01-15 13:22:00,32.0,6.0,30.19,NW,315,6.0,14.0,32,0.00,,,-99.99,,2013-01-15 20:22:00,
2013-01-15 13:32:00,32.0,4.0,30.19,West,270,8.0,17.0,30,0.00,,,-99.99,,2013-01-15 20:32:00,
2013-01-15 13:42:00,32.0,4.0,30.19,West,270,8.0,17.0,30,0.00,,,-99.99,,2013-01-15 20:42:00,
2013-01-15 13:53:00,31.0,7.0,30.19,NE,45,7.0,15.0,36,0.00,,,-99.99,,2013-01-15 20:53:00,
2013-01-15 14:02:00,34.0,8.0,30.19,NW,315,6.0,15.0,33,0.00,,,-99.99,,2013-01-15 21:02:00,
2013-01-15 14:12:00,34.0,8.0,30.19,NW,315,6.0,15.0,33,0.00,,,-99.99,,2013-01-15 21:12:00,
2013-01-15 14:22:00,34.0,7.0,30.19,NNE,22,7.0,16.0,32,0.00,,,-99.99,,2013-01-15 21:22:00,
2013-01-15 14:33:00,33.0,5.0,30.19,West,270,10.0,19.0,30,0.00,,,-99.99,,2013-01-15 21:33:00,
2013-01-15 14:42:00,33.0,5.0,30.19,West,270,10.0,19.0,30,0.00,,,-99.99,,2013-01-15 21:42:00,
2013-01-15 14:53:00,36.0,8.0,30.19,NE,45,11.0,17.0,30,0.00,,,-99.99,,2013-01-15 21:53:00,
2013-01-15 15:22:00,35.0,7.0,30.19,NE,45,6.0,14.0,31,0.00,,,-99.99,,2013-01-15 22:22:00,
2013-01-15 15:33:00,34.0,9.0,30.20,NW,315,6.0,13.0,34,0.00,,,-99.99,,2013-01-15 22:33:00,
2013-01-15 15:43:00,34.0,9.0,30.20,NW,315,6.0,13.0,34,0.00,,,-99.99,,2013-01-15 22:43:00,
2013-01-15 15:52:00,32.0,10.0,30.20,North,360,12.0,19.0,40,0.00,,,-99.99,,2013-01-15 22:52:00,
2013-01-15 16:02:00,31.0,9.0,30.21,NW,315,10.0,15.0,39,0.00,,,-99.99,,2013-01-15 23:02:00,
2013-01-15 16:12:00,31.0,9.0,30.21,NW,315,10.0,15.0,39,0.00,,,-99.99,,2013-01-15 23:12:00,
2013-01-15 16:22:00,31.0,11.0,30.22,West,270,8.0,14.0,42,0.00,,,-99.99,,2013-01-15 23:22:00,
2013-01-15 16:32:00,31.0,11.0,30.22,West,270,5.0,9.0,42,0.00,,,-99.99,,2013-01-15 23:32:00,
2013-01-15 16:43:00,31.0,11.0,30.22,West,270,5.0,9.0,42,0.00,,,-99.99,,2013-01-15 23:43:00,
2013-01-15 16:53:00,31.0,11.0,30.22,West,270,5.0,9.0,42,0.00,,,-99.99,,2013-01-15 23:53:00,
2013-01-15 17:02:00,31.0,6.0,30.24,NW,315,9.0,14.0,34,0.00,,,-99.99,,2013-01-16 00:02:00,
2013-01-15 17:12:00,31.0,6.0,30.24,NW,315,9.0,14.0,34,0.00,,,-99.99,,2013-01-16 00:12:00,
2013-01-15 17:22:00,31.0,7.0,30.24,East,90,7.0,15.0,35,0.00,,,-99.99,,2013-01-16 00:22:00,
2013-01-15 17:32:00,30.0,6.0,30.24,East,90,8.0,15.0,36,0.00,,,-99.99,,2013-01-16 00:32:00,
2013-01-15 17:43:00,30.0,6.0,30.24,East,90,8.0,15.0,36,0.00,,,-99.99,,2013-01-16 00:43:00,
2013-01-15 17:52:00,29.0,7.0,30.24,East,90,11.0,17.0,38,0.00,,,-99.99,,2013-01-16 00:52:00,
2013-01-15 18:02:00,27.0,6.0,30.25,NE,45,4.0,12.0,41,0.00,,,-99.99,,2013-01-16 01:02:00,
2013-01-15 18:11:00,27.0,6.0,30.25,NE,45,4.0,12.0,41,0.00,,,-99.99,,2013-01-16 01:11:00,
2013-01-15 18:22:00,26.0,7.0,30.25,North,360,3.0,11.0,44,0.00,,,-99.99,,2013-01-16 01:22:00,
2013-01-15 18:32:00,25.0,7.0,30.26,NW,315,3.0,11.0,45,0.00,,,-99.99,,2013-01-16 01:32:00,
2013-01-15 18:42:00,25.0,7.0,30.26,NW,315,3.0,11.0,45,0.00,,,-99.99,,2013-01-16 01:42:00,
2013-01-15 18:53:00,25.0,8.0,30.26,NE,45,8.0,14.0,47,0.00,,,-99.99,,2013-01-16 01:53:00,
2013-01-15 19:02:00,24.0,7.0,30.26,WNW,292,5.0,11.0,48,0.00,,,-99.99,,2013-01-16 02:02:00,
2013-01-15 19:12:00,24.0,7.0,30.26,WNW,292,5.0,11.0,48,0.00,,,-99.99,,2013-01-16 02:12:00,
2013-01-15 19:22:00,24.0,7.0,30.26,NNW,338,5.0,17.0,48,0.00,,,-99.99,,2013-01-16 02:22:00,
2013-01-15 19:32:00,24.0,7.0,30.26,East,90,5.0,13.0,48,0.00,,,-99.99,,2013-01-16 02:32:00,
2013-01-15 19:42:00,24.0,7.0,30.26,East,90,5.0,13.0,48,0.00,,,-99.99,,2013-01-16 02:42:00,
2013-01-15 19:53:00,24.0,8.0,30.26,NE,45,3.0,10.0,49,0.00,,,-99.99,,2013-01-16 02:53:00,
2013-01-15 20:02:00,23.0,7.0,30.26,North,360,3.0,8.0,50,0.00,,,-99.99,,2013-01-16 03:02:00,
2013-01-15 20:11:00,23.0,8.0,30.27,NE,45,2.0,8.0,51,0.00,,,-99.99,,2013-01-16 03:11:00,
2013-01-15 20:22:00,23.0,8.0,30.27,NE,45,2.0,8.0,51,0.00,,,-99.99,,2013-01-16 03:22:00,
2013-01-15 20:32:00,22.0,7.0,30.27,NW,315,2.0,8.0,52,0.00,,,-99.99,,2013-01-16 03:32:00,
2013-01-15 20:43:00,22.0,7.0,30.27,NW,315,2.0,8.0,52,0.00,,,-99.99,,2013-01-16 03:43:00,
2013-01-15 20:52:00,22.0,7.0,30.27,East,90,2.0,8.0,52,0.00,,,-99.99,,2013-01-16 03:52:00,
2013-01-15 21:02:00,23.0,7.0,30.27,NE,45,4.0,11.0,50,0.00,,,-99.99,,2013-01-16 04:02:00,
2013-01-15 21:11:00,23.0,7.0,30.27,NE,45,4.0,11.0,50,0.00,,,-99.99,,2013-01-16 04:11:00,
2013-01-15 21:22:00,22.0,6.0,30.27,East,90,1.0,4.0,50,0.00,,,-99.99,,2013-01-16 04:22:00,
2013-01-15 21:32:00,22.0,7.0,30.27,NE,45,1.0,5.0,51,0.00,,,-99.99,,2013-01-16 04:32:00,
2013-01-15 21:42:00,22.0,7.0,30.27,NE,45,1.0,5.0,51,0.00,,,-99.99,,2013-01-16 04:42:00,
2013-01-15 21:52:00,19.0,5.0,30.27,NW,315,2.0,7.0,54,0.00,,,-99.99,,2013-01-16 04:52:00,
2013-01-15 22:02:00,17.0,6.0,30.27,NW,315,1.0,4.0,60,0.00,,,-99.99,,2013-01-16 05:02:00,
2013-01-15 22:12:00,17.0,6.0,30.27,NW,315,1.0,4.0,60,0.00,,,-99.99,,2013-01-16 05:12:00,
2013-01-15 22:22:00,17.0,5.0,30.27,NE,45,1.0,8.0,59,0.00,,,-99.99,,2013-01-16 05:22:00,
2013-01-15 22:32:00,17.0,5.0,30.27,NE,45,1.0,8.0,59,0.00,,,-99.99,,2013-01-16 05:32:00,
2013-01-15 22:42:00,17.0,5.0,30.27,NE,45,1.0,8.0,59,0.00,,,-99.99,,2013-01-16 05:42:00,
2013-01-15 22:53:00,17.0,4.0,30.29,WNW,292,0.0,2.0,57,0.00,,,-99.99,,2013-01-16 05:53:00,
2013-01-15 23:02:00,18.0,6.0,30.28,North,360,3.0,6.0,58,0.00,,,-99.99,,2013-01-16 06:02:00,
2013-01-15 23:11:00,18.0,6.0,30.28,North,360,3.0,6.0,58,0.00,,,-99.99,,2013-01-16 06:11:00,
2013-01-15 23:22:00,17.0,5.0,30.28,North,360,3.0,5.0,58,0.00,,,-99.99,,2013-01-16 06:22:00,
2013-01-15 23:32:00,17.0,5.0,30.28,North,360,3.0,5.0,58,0.00,,,-99.99,,2013-01-16 06:32:00,
2013-01-15 23:42:00,17.0,5.0,30.28,North,360,3.0,5.0,58,0.00,,,-99.99,,2013-01-16 06:42:00,
2013-01-15 23:52:00,15.0,4.0,30.28,South,180,1.0,4.0,61,0.00,,,-99.99,,2013-01-16 06:52:00,